"startDT [UTC]","vpos","CH4 [ppm]","stdev(CH4) [ppm]","CO2 [ppm]","stdev(CO2) [ppm]","H2O [ppm]","stdev(H2O)","p_LGR [torr]","T_LGR [C]","mt1_LGR [us]","mt2_LGR [us]","T_ECpre [C]","T_EC1 [C]","T_EC2 [C]","p_inlet [hPa]","p_in [hPa]","p_out [hPa]","T_inlet [C]","RH_inlet [%]","dwpt_inlet [C]","T_vent [C]","RH_vent [%]","dwpt_vent [C]","flow_vent [l min-1]","flow_inlet [l min-1]","dwpt_sample [C]","T_room [C]"
2012-10-22 00:00:00,0.0,1.9253,0.0011,398.38,0.40,88.9,37.4,138.13,28.01,24.64,36.37,0.04,-272.75,-272.75,-40,560,-933,22.4,3.8,-22.2,22.6,3.9,-21.9,5.73,2.41,-25.5,27.6
2012-10-22 00:01:00,0.0,1.9255,0.0009,398.42,0.39,89.3,45.0,138.13,28.01,24.64,36.36,0.04,-272.75,-272.75,-40,560,-933,22.4,3.8,-22.2,22.6,3.9,-21.9,5.73,2.41,-25.5,27.6
2012-10-22 00:02:00,0.0,1.9255,0.0012,398.37,0.39,90.7,34.2,138.13,28.01,24.63,36.37,0.04,-272.75,-272.75,-40,560,-933,22.4,3.8,-22.2,22.6,3.8,-22.0,5.73,2.40,-25.6,27.6
2012-10-22 00:03:00,0.0,1.9262,0.0011,398.33,0.41,91.7,42.1,138.13,28.01,24.64,36.37,0.04,-272.75,-272.75,-40,560,-933,22.4,3.8,-22.2,22.6,3.8,-22.0,5.73,2.41,-25.5,27.6
2012-10-22 00:04:00,0.0,1.9261,0.0009,398.56,0.36,98.6,34.6,138.14,28.00,24.63,36.36,0.04,-272.74,-272.75,-40,560,-933,22.4,3.8,-22.2,22.6,3.8,-22.0,5.73,2.40,-25.5,27.6
2012-10-22 00:05:00,0.0,1.9259,0.0010,398.48,0.41,91.6,38.5,138.14,28.00,24.64,36.36,0.04,-272.75,-272.75,-40,560,-933,22.4,3.8,-22.3,22.6,3.8,-22.1,5.73,2.41,-25.5,27.6
2012-10-22 00:06:00,0.0,1.9266,0.0010,398.51,0.42,92.9,38.4,138.14,28.00,24.63,36.37,0.04,-272.75,-272.75,-41,560,-933,22.4,3.8,-22.3,22.6,3.8,-22.1,5.73,2.41,-25.5,27.6
2012-10-22 00:07:00,0.0,1.9255,0.0008,398.31,0.39,100.8,42.8,138.14,28.00,24.64,36.37,0.04,-272.75,-272.75,-40,560,-933,22.4,3.7,-22.4,22.6,3.8,-22.2,5.73,2.40,-25.5,27.6
2012-10-22 00:08:00,0.0,1.9258,0.0011,398.37,0.39,95.1,35.3,138.14,28.00,24.63,36.36,0.04,-272.75,-272.75,-40,560,-933,22.4,3.7,-22.4,22.6,3.8,-22.2,5.73,2.41,-25.6,27.6
2012-10-22 00:09:00,0.0,1.9267,0.0013,398.45,0.37,95.6,34.3,138.14,28.00,24.63,36.37,0.04,-272.75,-272.75,-40,560,-932,22.4,3.7,-22.5,22.6,3.7,-22.3,5.73,2.41,-25.6,27.6
2012-10-22 00:10:00,0.0,1.9267,0.0010,398.38,0.38,92.2,39.8,138.13,28.00,24.63,36.36,0.04,-272.75,-272.75,-40,560,-933,22.4,3.7,-22.5,22.6,3.7,-22.3,5.73,2.41,-25.5,27.6
2012-10-22 00:11:00,0.0,1.9262,0.0012,398.45,0.35,91.9,39.2,138.14,27.99,24.63,36.36,0.04,-272.75,-272.75,-40,560,-933,22.4,3.7,-22.6,22.6,3.7,-22.4,5.73,2.41,-25.5,27.6
2012-10-22 00:12:00,0.0,1.9265,0.0009,398.46,0.39,88.0,36.7,138.14,27.99,24.63,36.36,0.04,-272.75,-272.75,-40,560,-933,22.4,3.7,-22.7,22.6,3.7,-22.4,5.73,2.42,-25.5,27.6
2012-10-22 00:13:00,0.0,1.9261,0.0011,398.38,0.43,90.8,38.1,138.14,27.99,24.63,36.36,0.04,-272.75,-272.75,-40,560,-933,22.4,3.6,-22.7,22.6,3.7,-22.5,5.73,2.42,-25.5,27.6
2012-10-22 00:14:00,0.0,1.9267,0.0012,398.51,0.44,85.5,36.8,138.13,27.99,24.63,36.36,0.04,-272.74,-272.74,-40,560,-933,22.4,3.6,-22.8,22.6,3.6,-22.6,5.73,2.42,-25.5,27.6
2012-10-22 00:15:00,0.0,1.9265,0.0010,398.41,0.38,90.8,35.8,138.13,27.99,24.63,36.36,0.04,-272.75,-272.75,-40,560,-933,22.4,3.6,-22.9,22.6,3.6,-22.6,5.73,2.42,-25.5,27.6
2012-10-22 00:16:00,0.0,1.9258,0.0008,398.52,0.46,92.9,36.9,138.14,27.99,24.63,36.36,0.04,-272.74,-272.75,-40,560,-933,22.4,3.6,-22.9,22.6,3.6,-22.7,5.73,2.43,-25.5,27.6
2012-10-22 00:17:00,0.0,1.9260,0.0010,398.44,0.35,88.1,36.8,138.14,27.98,24.63,36.36,0.04,-272.75,-272.74,-40,560,-933,22.4,3.6,-22.9,22.6,3.6,-22.7,5.73,2.43,-25.5,27.6
2012-10-22 00:18:00,0.0,1.9262,0.0010,398.43,0.41,97.8,35.4,138.14,27.98,24.64,36.36,0.04,-272.75,-272.75,-40,560,-933,22.4,3.6,-22.9,22.6,3.6,-22.7,5.73,2.43,-25.5,27.6
2012-10-22 00:19:00,0.0,1.9259,0.0011,398.37,0.43,90.7,30.8,138.14,27.98,24.63,36.36,0.04,-272.75,-272.75,-40,560,-933,22.4,3.6,-22.9,22.6,3.6,-22.7,5.73,2.43,-25.5,27.6
2012-10-22 00:20:00,0.0,1.9258,0.0012,398.44,0.41,90.7,39.2,138.14,27.98,24.63,36.35,0.04,-272.75,-272.75,-40,560,-933,22.4,3.6,-22.9,22.6,3.6,-22.7,5.73,2.42,-25.5,27.6
2012-10-22 00:21:00,0.0,1.9267,0.0010,398.45,0.39,90.9,31.7,138.13,27.98,24.63,36.37,0.04,-272.74,-272.75,-40,560,-933,22.4,3.6,-22.9,22.6,3.6,-22.7,5.73,2.43,-25.5,27.6
2012-10-22 00:22:00,0.0,1.9261,0.0010,398.52,0.42,90.3,39.4,138.14,27.98,24.64,36.36,0.04,-272.75,-272.75,-40,560,-933,22.4,3.6,-23.0,22.6,3.6,-22.7,5.73,2.41,-25.5,27.6
2012-10-22 00:23:00,0.0,1.9277,0.0011,398.74,0.37,97.4,38.4,138.14,27.98,24.63,36.35,0.04,-272.74,-272.75,-40,560,-933,22.4,3.6,-23.0,22.5,3.6,-22.8,5.73,2.41,-25.5,27.6
2012-10-22 00:24:00,0.0,1.9268,0.0010,398.44,0.46,99.7,33.1,138.14,27.97,24.64,36.36,0.04,-272.74,-272.75,-40,560,-933,22.4,3.6,-23.0,22.5,3.6,-22.8,5.73,2.41,-25.5,27.6
2012-10-22 00:25:00,0.0,1.9265,0.0009,398.54,0.33,95.4,32.9,138.14,27.97,24.64,36.36,0.04,-272.75,-272.75,-40,560,-933,22.4,3.5,-23.0,22.6,3.6,-22.8,5.73,2.41,-25.5,27.6
2012-10-22 00:26:00,0.0,1.9265,0.0010,398.28,0.42,102.9,37.4,138.14,27.97,24.64,36.36,0.04,-272.75,-272.75,-40,560,-933,22.4,3.5,-23.0,22.5,3.6,-22.8,5.73,2.40,-25.5,27.6
2012-10-22 00:27:00,0.0,1.9275,0.0013,398.57,0.39,87.6,36.4,138.14,27.97,24.64,36.36,0.04,-272.75,-272.75,-40,560,-933,22.4,3.6,-23.0,22.5,3.6,-22.8,5.73,2.41,-25.5,27.6
2012-10-22 00:28:00,0.0,1.9329,0.0022,399.17,0.42,88.1,41.2,138.14,27.97,24.63,36.36,0.04,-272.75,-272.75,-40,560,-933,22.4,3.6,-23.0,22.5,3.6,-22.8,5.73,2.40,-25.5,27.6
2012-10-22 00:29:00,0.0,1.9303,0.0025,398.74,0.57,95.6,35.0,138.14,27.96,24.63,36.36,0.04,-272.75,-272.75,-40,560,-933,22.4,3.6,-23.0,22.5,3.6,-22.8,5.73,2.40,-25.5,27.6
2012-10-22 00:30:00,0.0,1.9276,0.0009,398.51,0.34,93.8,41.1,138.14,27.96,24.63,36.36,0.04,-272.75,-272.75,-40,560,-933,22.3,3.5,-23.0,22.5,3.6,-22.8,5.73,2.41,-25.5,27.6
2012-10-22 00:31:00,0.0,1.9284,0.0010,398.49,0.45,88.2,41.1,138.13,27.96,24.63,36.36,0.04,-272.75,-272.75,-40,560,-933,22.3,3.6,-23.0,22.5,3.6,-22.8,5.73,2.41,-25.5,27.6
2012-10-22 00:32:00,0.0,1.9297,0.0016,398.76,0.45,97.6,41.8,138.14,27.96,24.63,36.37,0.04,-272.75,-272.75,-40,560,-933,22.3,3.6,-23.0,22.5,3.6,-22.7,5.73,2.41,-25.5,27.6
2012-10-22 00:33:00,0.0,1.9285,0.0011,398.60,0.42,100.7,39.1,138.13,27.96,24.63,36.36,0.04,-272.75,-272.75,-40,560,-933,22.3,3.6,-22.9,22.5,3.6,-22.7,5.73,2.42,-25.5,27.6
2012-10-22 00:34:00,0.0,1.9277,0.0012,398.64,0.37,92.3,38.2,138.14,27.95,24.63,36.35,0.04,-272.74,-272.75,-40,560,-932,22.3,3.6,-23.0,22.5,3.6,-22.8,5.73,2.42,-25.5,27.6
2012-10-22 00:35:00,0.0,1.9269,0.0011,398.40,0.31,92.8,37.6,138.14,27.95,24.63,36.37,0.04,-272.75,-272.75,-40,560,-933,22.3,3.6,-23.0,22.5,3.6,-22.8,5.73,2.42,-25.5,27.6
2012-10-22 00:36:00,0.0,1.9272,0.0013,398.48,0.48,95.2,35.2,138.14,27.95,24.63,36.36,0.04,-272.75,-272.75,-40,560,-932,22.3,3.6,-23.0,22.5,3.6,-22.8,5.73,2.43,-25.5,27.6
2012-10-22 00:37:00,0.0,1.9267,0.0010,398.47,0.44,96.4,40.0,138.14,27.95,24.63,36.36,0.04,-272.75,-272.75,-40,560,-933,22.3,3.6,-23.0,22.5,3.6,-22.8,5.73,2.43,-25.5,27.6
2012-10-22 00:38:00,0.0,1.9281,0.0013,398.63,0.40,87.1,42.0,138.14,27.95,24.63,36.36,0.04,-272.75,-272.75,-40,560,-932,22.4,3.6,-23.0,22.5,3.6,-22.8,5.73,2.43,-25.5,27.6
2012-10-22 00:39:00,0.0,1.9319,0.0022,399.01,0.37,104.1,40.9,138.14,27.95,24.63,36.36,0.04,-272.75,-272.75,-40,560,-933,22.3,3.6,-23.0,22.5,3.6,-22.8,5.73,2.43,-25.5,27.6
2012-10-22 00:40:00,1.0,1.8988,0.0237,385.46,9.55,82.5,42.6,138.13,27.95,24.63,36.37,0.04,-272.75,-272.75,-40,626,-932,22.3,3.6,-23.0,22.5,3.6,-22.8,5.73,2.40,-25.5,27.6
2012-10-22 00:41:00,1.0,1.8722,0.0011,374.95,0.38,78.2,34.4,138.14,27.94,24.63,36.37,0.04,-272.75,-272.75,-40,624,-933,22.3,3.6,-23.0,22.5,3.6,-22.8,5.73,2.42,-25.5,27.6
2012-10-22 00:42:00,1.0,1.8717,0.0010,374.95,0.45,87.8,37.9,138.14,27.94,24.64,36.37,0.04,-272.75,-272.75,-40,623,-933,22.3,3.6,-23.0,22.5,3.6,-22.8,5.73,2.41,-25.5,27.6
2012-10-22 00:43:00,1.0,1.8714,0.0011,374.88,0.32,76.1,38.2,138.14,27.94,24.64,36.37,0.04,-272.75,-272.75,-40,623,-933,22.4,3.6,-23.0,22.5,3.6,-22.8,5.73,2.41,-25.5,27.6
2012-10-22 00:44:00,1.0,1.8721,0.0011,374.95,0.37,85.8,30.4,138.14,27.94,24.63,36.37,0.04,-272.75,-272.74,-40,623,-933,22.4,3.6,-23.0,22.5,3.6,-22.8,5.73,2.41,-25.5,27.6
2012-10-22 00:45:00,0.0,1.9048,0.0242,388.04,9.38,87.7,34.8,138.14,27.94,24.63,36.37,0.04,-272.74,-272.74,-40,559,-933,22.4,3.6,-23.0,22.6,3.6,-22.8,5.73,2.45,-25.5,27.6
2012-10-22 00:46:00,0.0,1.9304,0.0014,398.60,0.35,94.8,35.1,138.14,27.94,24.63,36.36,0.04,-272.75,-272.75,-40,559,-933,22.4,3.6,-22.8,22.6,3.6,-22.7,5.73,2.40,-25.5,27.6
2012-10-22 00:47:00,0.0,1.9296,0.0012,398.85,0.37,94.4,40.0,138.13,27.94,24.63,36.36,0.04,-272.74,-272.75,-40,559,-933,22.4,3.8,-22.1,22.6,3.9,-21.8,5.73,2.40,-25.5,27.6
2012-10-22 00:48:00,0.0,1.9300,0.0010,398.78,0.42,92.7,41.4,138.14,27.94,24.64,36.36,0.04,-272.75,-272.74,-40,560,-932,22.4,3.6,-22.9,22.6,3.6,-22.6,5.73,2.40,-25.5,27.6
2012-10-22 00:49:00,0.0,1.9297,0.0015,398.88,0.44,103.6,35.5,138.14,27.94,24.63,36.35,0.04,-272.75,-272.75,-40,560,-933,22.4,3.6,-22.9,22.6,3.6,-22.7,5.73,2.41,-25.5,27.6
2012-10-22 00:50:00,0.0,1.9283,0.0009,398.76,0.38,95.3,39.8,138.14,27.94,24.63,36.36,0.04,-272.75,-272.75,-40,560,-932,22.4,3.6,-22.9,22.6,3.6,-22.7,5.73,2.40,-25.5,27.6
2012-10-22 00:51:00,0.0,1.9310,0.0019,399.16,0.44,90.0,32.5,138.13,27.94,24.63,36.36,0.04,-272.75,-272.75,-40,560,-933,22.4,3.6,-22.9,22.6,3.6,-22.7,5.73,2.41,-25.4,27.7
2012-10-22 00:52:00,0.0,1.9322,0.0017,399.23,0.38,105.8,41.4,138.14,27.94,24.63,36.37,0.04,-272.75,-272.75,-40,560,-933,22.4,3.6,-22.9,22.7,3.6,-22.6,5.73,2.41,-25.5,27.7
2012-10-22 00:53:00,0.0,1.9285,0.0010,398.87,0.42,102.3,41.6,138.13,27.94,24.64,36.36,0.04,-272.75,-272.75,-40,560,-933,22.4,3.6,-22.8,22.7,3.6,-22.6,5.73,2.42,-25.4,27.7
2012-10-22 00:54:00,0.0,1.9283,0.0010,398.65,0.43,106.3,37.6,138.13,27.94,24.63,36.36,0.04,-272.75,-272.75,-40,560,-933,22.4,3.6,-22.8,22.7,3.6,-22.6,5.73,2.42,-25.4,27.8
2012-10-22 00:55:00,0.0,1.9280,0.0010,398.60,0.42,102.8,41.9,138.13,27.94,24.63,36.36,0.04,-272.75,-272.75,-40,560,-933,22.4,3.6,-22.7,22.7,3.6,-22.5,5.73,2.43,-25.4,27.8
2012-10-22 00:56:00,0.0,1.9279,0.0012,398.60,0.42,106.4,41.8,138.13,27.94,24.64,36.37,0.04,-272.75,-272.75,-40,560,-933,22.5,3.7,-22.6,22.7,3.7,-22.4,5.73,2.42,-25.4,27.9
2012-10-22 00:57:00,0.0,1.9279,0.0011,398.63,0.39,116.3,41.2,138.13,27.94,24.64,36.36,0.04,-272.75,-272.75,-40,560,-933,22.4,3.8,-22.3,22.7,3.8,-22.1,5.73,2.43,-25.3,27.9
2012-10-22 00:58:00,0.0,1.9292,0.0012,398.80,0.36,100.9,39.1,138.13,27.94,24.63,36.36,0.04,-272.75,-272.74,-40,560,-933,22.5,3.7,-22.5,22.7,3.7,-22.3,5.73,2.43,-25.3,27.9
2012-10-22 00:59:00,0.0,1.9297,0.0016,399.21,0.46,109.6,43.8,138.13,27.94,24.63,36.36,0.04,-272.75,-272.75,-40,560,-933,22.5,3.7,-22.5,22.7,3.7,-22.3,5.73,2.43,-25.3,27.9
2012-10-22 01:00:00,0.0,1.9297,0.0013,399.09,0.38,107.1,32.9,138.13,27.94,24.63,36.37,0.04,-272.75,-272.75,-41,560,-933,22.5,3.7,-22.5,22.7,3.7,-22.3,5.73,2.43,-25.3,27.9
2012-10-22 01:01:00,0.0,1.9287,0.0014,398.77,0.48,118.9,38.1,138.13,27.94,24.63,36.37,0.04,-272.74,-272.75,-41,560,-933,22.5,3.7,-22.5,22.7,3.7,-22.2,5.73,2.42,-25.3,27.9
2012-10-22 01:02:00,0.0,1.9281,0.0013,398.78,0.41,119.1,37.6,138.13,27.95,24.63,36.36,0.04,-272.75,-272.75,-40,560,-933,22.5,3.7,-22.4,22.7,3.7,-22.2,5.73,2.42,-25.3,27.9
2012-10-22 01:03:00,0.0,1.9289,0.0014,398.85,0.44,118.5,36.5,138.13,27.95,24.64,36.36,0.04,-272.74,-272.75,-40,560,-933,22.5,3.7,-22.4,22.7,3.7,-22.2,5.73,2.41,-25.2,28.0
2012-10-22 01:04:00,0.0,1.9337,0.0020,399.50,0.40,111.6,32.0,138.13,27.95,24.63,36.36,0.04,-272.75,-272.75,-40,560,-933,22.5,4.1,-21.3,22.7,4.1,-21.3,5.73,2.42,-25.3,28.0
2012-10-22 01:05:00,0.0,1.9382,0.0012,399.95,0.36,103.5,40.6,138.13,27.95,24.63,36.37,0.04,-272.75,-272.75,-41,560,-933,22.5,4.2,-21.1,22.7,4.2,-20.8,5.73,2.40,-25.3,28.0
2012-10-22 01:06:00,0.0,1.9407,0.0014,400.00,0.37,99.7,33.4,138.13,27.95,24.63,36.36,0.04,-272.75,-272.75,-41,560,-933,22.5,3.8,-22.2,22.7,3.8,-22.0,5.73,2.40,-25.3,28.0
2012-10-22 01:07:00,0.0,1.9408,0.0011,399.98,0.43,118.0,37.9,138.13,27.95,24.63,36.36,0.04,-272.75,-272.75,-41,561,-933,22.5,3.8,-22.3,22.7,3.8,-22.0,5.73,2.40,-25.3,28.0
2012-10-22 01:08:00,0.0,1.9419,0.0011,399.81,0.33,122.6,42.1,138.13,27.95,24.63,36.37,0.04,-272.75,-272.74,-41,560,-933,22.5,3.8,-22.3,22.7,3.8,-22.1,5.73,2.41,-25.3,28.0
2012-10-22 01:09:00,0.0,1.9406,0.0012,399.81,0.38,105.0,38.0,138.13,27.95,24.64,36.37,0.04,-272.74,-272.75,-41,560,-933,22.5,3.8,-22.3,22.7,3.8,-22.1,5.73,2.40,-25.3,28.0
2012-10-22 01:10:00,0.0,1.9412,0.0014,399.84,0.38,103.4,39.2,138.13,27.95,24.63,36.35,0.04,-272.75,-272.75,-41,560,-933,22.5,3.8,-22.3,22.7,3.8,-22.0,5.73,2.40,-25.3,28.1
2012-10-22 01:11:00,0.0,1.9452,0.0022,399.97,0.39,102.7,35.9,138.13,27.95,24.63,36.36,0.04,-272.74,-272.75,-41,560,-933,22.5,3.8,-22.3,22.7,3.8,-22.0,5.73,2.41,-25.4,28.1
2012-10-22 01:12:00,0.0,1.9465,0.0011,399.97,0.40,109.0,40.3,138.13,27.96,24.63,36.36,0.04,-272.75,-272.75,-40,560,-933,22.5,3.8,-22.3,22.7,3.8,-22.1,5.73,2.41,-25.4,28.0
2012-10-22 01:13:00,0.0,1.9445,0.0011,399.90,0.39,116.2,37.7,138.13,27.96,24.63,36.37,0.04,-272.75,-272.75,-41,560,-933,22.5,3.8,-22.3,22.7,3.8,-22.1,5.73,2.42,-25.4,28.0
2012-10-22 01:14:00,0.0,1.9432,0.0018,399.76,0.52,105.1,39.5,138.13,27.96,24.63,36.36,0.04,-272.75,-272.75,-41,560,-933,22.5,3.8,-22.2,22.7,3.8,-22.0,5.73,2.42,-25.4,28.0
2012-10-22 01:15:00,0.0,1.9385,0.0011,399.33,0.44,96.2,41.8,138.13,27.96,24.64,36.37,0.04,-272.74,-272.75,-41,560,-933,22.4,3.8,-22.2,22.7,3.8,-22.0,5.73,2.43,-25.4,28.0
2012-10-22 01:16:00,0.0,1.9387,0.0009,399.24,0.44,104.2,35.6,138.13,27.96,24.63,36.37,0.04,-272.75,-272.75,-41,560,-934,22.5,3.8,-22.2,22.7,3.8,-21.9,5.73,2.43,-25.4,28.0
2012-10-22 01:17:00,0.0,1.9388,0.0009,399.36,0.41,101.1,38.1,138.13,27.96,24.63,36.37,0.04,-272.75,-272.75,-41,560,-933,22.5,3.8,-22.1,22.7,3.8,-21.9,5.73,2.43,-25.4,28.0
2012-10-22 01:18:00,0.0,1.9388,0.0010,399.23,0.41,105.6,37.4,138.13,27.96,24.63,36.36,0.04,-272.75,-272.75,-41,560,-933,22.5,3.8,-22.1,22.7,3.8,-21.9,5.73,2.43,-25.5,28.0
2012-10-22 01:19:00,0.0,1.9378,0.0012,399.28,0.38,99.1,40.3,138.13,27.96,24.63,36.36,0.04,-272.75,-272.75,-41,560,-933,22.5,3.8,-22.2,22.7,3.8,-21.9,5.73,2.42,-25.5,28.0
2012-10-22 01:20:00,0.0,1.9364,0.0010,399.23,0.37,109.5,36.6,138.13,27.96,24.64,36.37,0.04,-272.75,-272.75,-41,560,-934,22.4,3.8,-22.2,22.7,3.8,-21.9,5.73,2.42,-25.5,28.0
2012-10-22 01:21:00,0.0,1.9366,0.0008,399.25,0.42,103.4,34.6,138.13,27.96,24.63,36.37,0.04,-272.74,-272.74,-40,560,-933,22.4,3.8,-22.2,22.7,3.8,-21.9,5.73,2.41,-25.5,28.0
2012-10-22 01:22:00,0.0,1.9372,0.0010,399.35,0.43,98.4,37.5,138.13,27.96,24.64,36.36,0.04,-272.74,-272.75,-41,560,-933,22.4,3.8,-22.2,22.7,3.8,-22.0,5.73,2.40,-25.5,28.0
2012-10-22 01:23:00,0.0,1.9378,0.0010,399.40,0.43,97.7,38.3,138.13,27.96,24.63,36.36,0.04,-272.75,-272.75,-41,560,-933,22.4,3.8,-22.2,22.7,3.8,-22.0,5.73,2.40,-25.5,28.0
2012-10-22 01:24:00,0.0,1.9373,0.0012,399.28,0.39,89.4,39.2,138.13,27.96,24.63,36.37,0.04,-272.74,-272.75,-41,560,-933,22.4,3.8,-22.2,22.7,3.8,-21.9,5.73,2.39,-25.5,28.0
2012-10-22 01:25:00,0.0,1.9378,0.0011,399.26,0.37,96.2,37.7,138.13,27.96,24.64,36.37,0.04,-272.74,-272.75,-41,561,-933,22.4,3.8,-22.2,22.7,3.8,-21.9,5.73,2.40,-25.5,27.9
2012-10-22 01:26:00,0.0,1.9376,0.0010,399.28,0.43,97.3,35.8,138.13,27.95,24.63,36.37,0.04,-272.75,-272.75,-41,560,-933,22.4,3.8,-22.1,22.7,3.8,-22.0,5.73,2.41,-25.5,27.9
2012-10-22 01:27:00,0.0,1.9381,0.0009,399.38,0.37,93.4,38.7,138.13,27.95,24.63,36.36,0.04,-272.75,-272.74,-41,560,-934,22.4,3.8,-22.2,22.7,3.8,-22.0,5.73,2.41,-25.5,27.9
2012-10-22 01:28:00,0.0,1.9406,0.0022,399.35,0.38,101.1,36.6,138.13,27.95,24.63,36.37,0.04,-272.75,-272.74,-41,560,-933,22.4,3.8,-22.1,22.7,3.8,-21.9,5.73,2.41,-25.5,27.9
2012-10-22 01:29:00,0.0,1.9460,0.0017,399.69,0.40,98.1,35.3,138.13,27.96,24.63,36.36,0.04,-272.75,-272.75,-41,560,-934,22.4,3.8,-22.1,22.7,3.9,-21.9,5.73,2.42,-25.5,27.9
2012-10-22 01:30:00,0.0,1.9573,0.0033,400.17,0.38,93.9,38.8,138.13,27.96,24.64,36.37,0.04,-272.75,-272.75,-41,560,-933,22.4,3.9,-22.1,22.7,3.9,-21.9,5.73,2.43,-25.5,27.9
2012-10-22 01:31:00,0.0,1.9538,0.0010,399.97,0.37,93.5,33.8,138.13,27.96,24.63,36.37,0.04,-272.74,-272.75,-41,560,-933,22.4,3.9,-22.1,22.7,3.9,-21.9,5.73,2.43,-25.6,27.9
2012-10-22 01:32:00,0.0,1.9477,0.0021,399.66,0.52,95.6,36.3,138.13,27.96,24.63,36.37,0.04,-272.75,-272.75,-41,561,-933,22.4,3.9,-22.1,22.7,3.9,-21.9,5.73,2.43,-25.5,27.8
2012-10-22 01:33:00,0.0,1.9432,0.0027,399.69,0.46,93.4,38.0,138.13,27.96,24.63,36.37,0.04,-272.75,-272.75,-41,560,-933,22.4,3.8,-22.2,22.7,3.9,-21.9,5.73,2.43,-25.6,27.8
2012-10-22 01:34:00,0.0,1.9397,0.0015,399.38,0.45,91.8,34.2,138.13,27.96,24.64,36.37,0.04,-272.75,-272.75,-41,560,-933,22.4,3.8,-22.1,22.7,3.9,-21.9,5.73,2.43,-25.6,27.8
2012-10-22 01:35:00,0.0,1.9463,0.0022,399.69,0.39,93.5,38.0,138.13,27.96,24.63,36.37,0.04,-272.75,-272.75,-41,561,-933,22.4,3.8,-22.1,22.7,3.9,-21.9,5.73,2.42,-25.6,27.8
2012-10-22 01:36:00,0.0,1.9510,0.0009,400.06,0.37,86.5,39.2,138.13,27.96,24.63,36.36,0.04,-272.75,-272.75,-41,560,-933,22.4,3.8,-22.1,22.7,3.9,-21.9,5.73,2.42,-25.6,27.8
2012-10-22 01:37:00,0.0,1.9562,0.0030,400.29,0.46,102.0,36.4,138.13,27.96,24.63,36.36,0.04,-272.75,-272.75,-41,560,-933,22.5,3.8,-22.1,22.7,3.9,-21.9,5.73,2.42,-25.6,27.8
2012-10-22 01:38:00,0.0,1.9567,0.0025,400.16,0.36,84.4,40.5,138.13,27.96,24.63,36.37,0.04,-272.74,-272.75,-41,560,-934,22.4,3.9,-22.1,22.7,3.9,-21.9,5.73,2.41,-25.6,27.8
2012-10-22 01:39:00,0.0,1.9576,0.0019,400.30,0.36,88.2,37.5,138.13,27.96,24.63,36.37,0.04,-272.75,-272.74,-41,560,-933,22.4,3.9,-22.0,22.7,3.9,-21.8,5.73,2.40,-25.6,27.8
2012-10-22 01:40:00,0.0,1.9561,0.0015,400.38,0.43,91.7,43.3,138.13,27.96,24.63,36.36,0.04,-272.75,-272.75,-41,560,-934,22.4,3.9,-22.1,22.7,3.9,-21.8,5.73,2.40,-25.6,27.8
2012-10-22 01:41:00,0.0,1.9578,0.0020,400.47,0.36,91.9,36.9,138.13,27.95,24.63,36.35,0.04,-272.75,-272.75,-41,561,-933,22.4,3.9,-22.0,22.7,3.9,-21.8,5.73,2.40,-25.6,27.8
2012-10-22 01:42:00,0.0,1.9589,0.0010,400.40,0.42,87.3,38.5,138.13,27.95,24.64,36.36,0.04,-272.74,-272.75,-41,561,-933,22.5,3.9,-22.0,22.7,3.9,-21.8,5.73,2.39,-25.6,27.8
2012-10-22 01:43:00,0.0,1.9572,0.0015,400.13,0.43,97.0,37.3,138.13,27.95,24.63,36.37,0.04,-272.75,-272.75,-41,560,-933,22.5,3.9,-22.0,22.7,3.9,-21.7,5.73,2.39,-25.6,27.8
2012-10-22 01:44:00,0.0,1.9619,0.0026,400.52,0.43,91.3,39.6,138.13,27.96,24.63,36.36,0.04,-272.75,-272.75,-41,560,-933,22.5,3.9,-21.9,22.7,3.9,-21.7,5.73,2.41,-25.6,27.8
2012-10-22 01:45:00,0.0,1.9619,0.0026,400.60,0.42,88.7,37.3,138.13,27.96,24.63,36.36,0.04,-272.74,-272.74,-41,561,-933,22.5,3.9,-21.8,22.7,3.9,-21.7,5.73,2.41,-25.6,27.7
2012-10-22 01:46:00,0.0,1.9588,0.0013,400.19,0.45,98.8,36.6,138.13,27.96,24.63,36.38,0.04,-272.75,-272.75,-41,560,-933,22.5,3.9,-21.9,22.7,3.9,-21.7,5.73,2.42,-25.6,27.7
2012-10-22 01:47:00,0.0,1.9590,0.0024,400.39,0.47,91.9,37.8,138.13,27.96,24.63,36.37,0.04,-272.75,-272.75,-41,560,-933,22.5,3.9,-21.9,22.7,3.9,-21.7,5.73,2.42,-25.6,27.8
2012-10-22 01:48:00,0.0,1.9413,0.0045,399.39,0.50,85.2,42.3,138.13,27.96,24.64,36.37,0.04,-272.74,-272.74,-41,561,-933,22.5,3.9,-21.8,22.7,3.9,-21.6,5.73,2.43,-25.6,27.8
2012-10-22 01:49:00,0.0,1.9376,0.0010,399.10,0.41,92.4,36.8,138.13,27.96,24.63,36.37,0.04,-272.75,-272.75,-41,561,-934,22.5,3.9,-21.8,22.7,4.0,-21.6,5.73,2.43,-25.6,27.8
2012-10-22 01:50:00,0.0,1.9377,0.0011,399.28,0.43,88.1,33.3,138.13,27.96,24.64,36.36,0.04,-272.75,-272.75,-41,560,-933,22.5,4.0,-21.7,22.7,4.0,-21.6,5.73,2.44,-25.6,27.8
2012-10-22 01:51:00,0.0,1.9389,0.0017,399.15,0.48,89.9,34.6,138.13,27.96,24.63,36.37,0.04,-272.75,-272.75,-41,561,-933,22.5,4.0,-21.7,22.7,4.0,-21.5,5.73,2.43,-25.6,27.7
2012-10-22 01:52:00,0.0,1.9457,0.0050,399.70,0.52,95.8,38.2,138.13,27.96,24.64,36.37,0.04,-272.75,-272.74,-41,560,-933,22.5,4.0,-21.7,22.7,4.0,-21.5,5.73,2.42,-25.6,27.7
2012-10-22 01:53:00,0.0,1.9577,0.0017,400.44,0.33,83.3,40.7,138.13,27.96,24.64,36.37,0.04,-272.75,-272.75,-41,560,-933,22.5,4.0,-21.6,22.7,4.0,-21.4,5.73,2.42,-25.6,27.8
2012-10-22 01:54:00,0.0,1.9575,0.0013,400.52,0.46,86.5,45.1,138.13,27.96,24.64,36.36,0.04,-272.75,-272.75,-41,560,-933,22.5,4.0,-21.6,22.7,4.0,-21.4,5.73,2.41,-25.6,27.8
2012-10-22 01:55:00,0.0,1.9516,0.0018,400.15,0.39,94.7,35.7,138.13,27.96,24.63,36.37,0.04,-272.75,-272.75,-41,560,-933,22.5,4.0,-21.6,22.7,4.0,-21.4,5.73,2.41,-25.6,27.8
2012-10-22 01:56:00,0.0,1.9539,0.0019,400.17,0.49,94.9,35.6,138.13,27.96,24.64,36.37,0.04,-272.75,-272.75,-41,560,-933,22.5,4.0,-21.6,22.7,4.0,-21.4,5.73,2.39,-25.6,27.8
2012-10-22 01:57:00,0.0,1.9574,0.0011,400.44,0.42,90.2,33.6,138.13,27.96,24.63,36.36,0.04,-272.75,-272.75,-41,561,-933,22.5,4.0,-21.6,22.7,4.0,-21.4,5.73,2.40,-25.6,27.8
2012-10-22 01:58:00,0.0,1.9556,0.0022,400.27,0.45,92.5,42.6,138.13,27.96,24.63,36.37,0.04,-272.74,-272.75,-41,560,-933,22.5,4.0,-21.6,22.7,4.0,-21.4,5.73,2.40,-25.6,27.8
2012-10-22 01:59:00,0.0,1.9544,0.0033,400.21,0.52,85.8,34.7,138.13,27.96,24.63,36.36,0.04,-272.75,-272.75,-41,561,-933,22.5,4.0,-21.5,22.7,4.1,-21.3,5.73,2.40,-25.6,27.8
2012-10-22 02:00:00,0.0,1.9575,0.0014,400.44,0.43,81.5,33.1,138.13,27.96,24.63,36.37,0.04,-272.75,-272.75,-41,561,-933,22.5,4.1,-21.4,22.7,4.1,-21.3,5.73,2.41,-25.6,27.8
2012-10-22 02:01:00,0.0,1.9589,0.0018,400.51,0.48,87.8,40.4,138.13,27.96,24.64,36.37,0.04,-272.75,-272.75,-41,560,-933,22.5,4.1,-21.4,22.7,4.1,-21.2,5.73,2.41,-25.6,27.8
2012-10-22 02:02:00,0.0,1.9569,0.0047,400.34,0.43,104.5,34.1,138.13,27.96,24.63,36.37,0.04,-272.74,-272.75,-41,560,-933,22.5,4.0,-21.4,22.7,4.1,-21.2,5.73,2.42,-25.6,27.7
2012-10-22 02:03:00,0.0,1.9548,0.0030,400.18,0.53,94.2,37.6,138.13,27.96,24.64,36.37,0.04,-272.75,-272.75,-41,560,-933,22.5,4.1,-21.4,22.7,4.1,-21.2,5.73,2.43,-25.6,27.8
2012-10-22 02:04:00,0.0,1.9600,0.0013,400.74,0.37,94.0,36.8,138.13,27.96,24.64,36.37,0.04,-272.75,-272.75,-41,561,-933,22.5,4.1,-21.4,22.7,4.1,-21.2,5.73,2.43,-25.6,27.7
2012-10-22 02:05:00,0.0,1.9631,0.0016,400.89,0.45,88.3,38.5,138.13,27.96,24.63,36.37,0.04,-272.74,-272.74,-41,560,-933,22.5,4.1,-21.3,22.7,4.1,-21.1,5.73,2.43,-25.6,27.8
2012-10-22 02:06:00,0.0,1.9643,0.0010,400.92,0.35,86.0,31.3,138.13,27.96,24.63,36.37,0.04,-272.75,-272.75,-41,561,-933,22.5,4.1,-21.3,22.7,4.1,-21.1,5.73,2.43,-25.6,27.7
2012-10-22 02:07:00,0.0,1.9603,0.0029,400.56,0.46,101.6,36.8,138.13,27.96,24.63,36.37,0.04,-272.74,-272.75,-41,561,-933,22.5,4.1,-21.3,22.7,4.1,-21.1,5.73,2.43,-25.6,27.7
2012-10-22 02:08:00,0.0,1.9641,0.0014,400.91,0.46,89.0,36.2,138.13,27.96,24.63,36.37,0.04,-272.75,-272.75,-41,561,-933,22.5,4.1,-21.3,22.7,4.1,-21.0,5.73,2.42,-25.6,27.7
2012-10-22 02:09:00,0.0,1.9637,0.0010,400.85,0.36,93.6,37.9,138.13,27.96,24.63,36.37,0.04,-272.74,-272.75,-41,561,-933,22.5,4.1,-21.3,22.7,4.1,-21.0,5.73,2.42,-25.6,27.7
2012-10-22 02:10:00,0.0,1.9642,0.0011,401.06,0.35,94.2,43.0,138.13,27.96,24.64,36.37,0.04,-272.74,-272.75,-41,561,-933,22.6,4.1,-21.3,22.7,4.1,-21.1,5.73,2.41,-25.6,27.7
2012-10-22 02:11:00,0.0,1.9656,0.0010,401.04,0.48,91.7,35.4,138.13,27.96,24.64,36.37,0.04,-272.74,-272.74,-41,561,-933,22.6,4.1,-21.3,22.7,4.1,-21.1,5.73,2.40,-25.6,27.7
2012-10-22 02:12:00,0.0,1.9659,0.0011,401.14,0.35,96.3,40.9,138.13,27.96,24.63,36.37,0.04,-272.75,-272.74,-41,560,-933,22.6,4.1,-21.3,22.7,4.1,-21.0,5.73,2.40,-25.5,27.7
2012-10-22 02:13:00,0.0,1.9674,0.0012,401.25,0.40,89.7,39.0,138.13,27.96,24.63,36.37,0.04,-272.75,-272.74,-41,560,-933,22.6,4.1,-21.3,22.7,4.1,-21.1,5.73,2.39,-25.5,27.7
2012-10-22 02:14:00,0.0,1.9681,0.0010,401.27,0.40,94.9,35.3,138.13,27.97,24.63,36.37,0.04,-272.75,-272.75,-41,560,-933,22.6,4.1,-21.2,22.7,4.1,-21.1,5.73,2.40,-25.5,27.8
2012-10-22 02:15:00,0.0,1.9688,0.0012,401.38,0.42,90.5,34.2,138.13,27.96,24.63,36.37,0.04,-272.74,-272.75,-41,561,-933,22.6,4.1,-21.3,22.7,4.1,-21.1,5.73,2.40,-25.5,27.7
2012-10-22 02:16:00,0.0,1.9679,0.0013,401.36,0.32,93.0,36.3,138.13,27.97,24.63,36.37,0.04,-272.74,-272.74,-41,561,-933,22.6,4.1,-21.3,22.7,4.1,-21.1,5.73,2.41,-25.5,27.8
2012-10-22 02:17:00,0.0,1.9679,0.0010,401.42,0.39,103.1,40.8,138.13,27.97,24.64,36.37,0.04,-272.75,-272.75,-41,561,-933,22.6,4.1,-21.3,22.7,4.1,-21.1,5.73,2.41,-25.5,27.8